Tracking 26321 objects as of 27-Nov-2022
HD Live streaming from Space Station
objects crossing your sky now

STARLINK-5248

Track STARLINK-5248 now!
10-day predictions
STARLINK-5248 is classified as:


NORAD ID: 54174
Int'l Code: 2022-141T
Perigee: 355.2 km
Apogee: 358.5 km
Inclination: 53.2 °
Period: 91.5 minutes
Semi major axis: 6727 km
RCS: Unknown
Launch date: October 28, 2022
Source: United States (US)
Launch site: AIR FORCE WESTERN TEST RANGE (AFWTR)
aabbcc
Your satellite tracking list
Your tracking list is empty




NASA's NSSDC Master Catalog

Two Line Element Set (TLE):
1 54174U 22141T   22330.91667824 -.00067841  00000-0 -48248-3 0  9991
2 54174  53.2156 355.2791 0002466  14.0783 103.1190 15.73213579  1300
Source of the keplerian elements: AFSPC